This demonstration page uses our WeatherBlox Daily Observations layout. Learn more.

Left ArrowRight Arrow

39.08367, -84.50855

Hourly Observations for August 10, 2019

Temp ( °F °C ) Dew Point ( °F °C ) Humidity (%) Winds ( mph kmh ) Pressure ( in mb ) Visibility ( mi km ) Precip ( " mm )
12:53 am 00:53 Clear 64 17.8 61 16.1 90 90 N N/A 29.97 1015 10 16 N/A
1:53 am 01:53 Clear 64 17.8 61 16.1 90 90 N N/A 29.96 1015 10 16 N/A
2:53 am 02:53 Clear 62 16.7 60 15.6 93 93 N N/A 29.97 1015 10 16 N/A
3:53 am 03:53 Clear 61 16.1 59 15 93 93 E 3 6 29.96 1015 10 16 N/A
4:53 am 04:53 Clear 61 16.1 60 15.6 97 97 NE 5 7 29.96 1014 10 16 N/A
5:32 am 05:32 Clear with Mist and Fog 59 15 58 14.4 96 96 N N/A 29.97 1015 2 2 N/A
5:46 am 05:46 Clear with Mist and Fog 58 14.4 58 14.4 100 100 N N/A 29.98 1015 3 5 N/A
5:53 am 05:53 Clear with Mist and Fog 58 14.4 58 14.4 100 100 N N/A 29.96 1015 6 10 N/A
6:53 am 06:53 Mostly Sunny 59 15 59 15 100 100 N N/A 29.98 1015 8 13 N/A
7:53 am 07:53 Mostly Sunny 62 16.7 60 15.6 93 93 NNE 3 6 30.00 1016 10 16 N/A
8:53 am 08:53 Sunny 68 20 62 16.7 81 81 N N/A 30.01 1016 10 16 N/A
9:53 am 09:53 Sunny 70 21.1 61 16.1 73 73 E 6 9 30.02 1017 10 16 N/A
10:53 am 10:53 Sunny 75 23.9 60 15.6 60 60 N N/A 30.03 1017 10 16 N/A
11:53 am 11:53 Mostly Cloudy 77 25 59 15 54 54 SE 3 6 30.02 1017 10 16 N/A
12:53 pm 12:53 Sunny 79 26.1 56 13.3 45 45 N 7 11 30.01 1016 10 16 N/A
1:53 pm 13:53 Sunny 81 27.2 56 13.3 42 42 N N/A 29.99 1016 10 16 N/A
2:53 pm 14:53 Sunny 82 27.8 56 13.3 41 41 W 10 17 29.98 1015 10 16 N/A
3:53 pm 15:53 Sunny 84 28.9 57 13.9 40 40 N N/A 29.96 1015 10 16 N/A
4:53 pm 16:53 Sunny 85 29.4 56 13.3 37 37 WNW 7 11 29.96 1015 10 16 N/A
5:53 pm 17:53 Sunny 84 28.9 54 12.2 36 36 NNE 10 17 29.96 1014 10 16 N/A
6:53 pm 18:53 Sunny 83 28.3 50 10 32 32 NNE 8 13 29.96 1014 10 16 N/A
7:53 pm 19:53 Sunny 80 26.7 54 12.2 41 41 N 6 9 29.97 1015 10 16 N/A
8:53 pm 20:53 Clear 70 21.1 60 15.6 71 71 N N/A 29.98 1015 10 16 N/A
9:53 pm 21:53 Clear 66 18.9 59 15 78 78 N N/A 30.00 1016 10 16 N/A
10:53 pm 22:53 Clear 65 18.3 59 15 81 81 N N/A 30.02 1017 10 16 N/A
11:53 pm 23:53 Clear 63 17.2 59 15 87 87 N N/A 30.03 1017 10 16 N/A

Powered by AerisWeather